Time,TemperatureF,DewpointF,PressureIn,WindDirection,WindDirectionDegrees,WindSpeedMPH,WindSpeedGustMPH,Humidity,HourlyPrecipIn,Conditions,Clouds,dailyrainin,SolarRadiationWatts/m^2,SoftwareType,DateUTC
2013-02-25 00:00:00,29.4,26.6,30.17,SW,226,0.0,1.5,89,0.00,,,0.00,0.00,VWS V14.01,2013-02-25 05:00:00,
2013-02-25 00:05:00,29.2,26.4,30.17,SW,226,0.0,0.0,89,0.00,,,0.00,0.00,VWS V14.01,2013-02-25 05:05:00,
2013-02-25 00:10:00,29.0,26.4,30.17,SW,226,0.0,0.0,90,0.00,,,0.00,0.00,VWS V14.01,2013-02-25 05:10:00,
2013-02-25 00:15:00,28.9,26.3,30.17,SW,226,0.0,0.0,90,0.00,,,0.00,0.00,VWS V14.01,2013-02-25 05:15:00,
2013-02-25 00:20:00,28.8,26.5,30.17,SW,226,0.0,0.0,91,0.00,,,0.00,0.00,VWS V14.01,2013-02-25 05:20:00,
2013-02-25 00:25:00,28.6,26.3,30.17,SW,226,0.0,0.0,91,0.00,,,0.00,0.00,VWS V14.01,2013-02-25 05:25:00,
2013-02-25 00:30:00,28.5,26.2,30.17,SW,226,0.0,0.0,91,0.00,,,0.00,0.00,VWS V14.01,2013-02-25 05:30:00,
2013-02-25 00:35:00,28.4,26.4,30.17,SW,226,0.0,1.5,92,0.00,,,0.00,0.00,VWS V14.01,2013-02-25 05:35:00,
2013-02-25 00:40:00,28.2,26.2,30.17,SE,136,0.0,1.5,92,0.00,,,0.00,0.00,VWS V14.01,2013-02-25 05:40:00,
2013-02-25 00:45:00,28.0,25.7,30.17,SE,136,0.0,1.5,91,0.00,,,0.00,0.00,VWS V14.01,2013-02-25 05:45:00,
2013-02-25 00:49:00,27.7,25.7,30.17,SE,136,0.0,0.0,92,0.00,,,0.00,0.00,VWS V14.01,2013-02-25 05:49:00,
2013-02-25 00:54:00,27.5,25.5,30.17,SE,136,0.0,0.0,92,0.00,,,0.00,0.00,VWS V14.01,2013-02-25 05:54:00,
2013-02-25 00:59:00,27.3,25.3,30.17,SE,136,0.0,0.0,92,0.00,,,0.00,0.00,VWS V14.01,2013-02-25 05:59:00,
2013-02-25 01:00:00,27.3,25.3,30.17,SE,136,0.0,0.0,92,0.00,,,0.00,0.00,VWS V14.01,2013-02-25 06:00:00,
2013-02-25 01:05:00,27.2,25.2,30.17,SE,136,0.0,0.0,92,0.00,,,0.00,0.00,VWS V14.01,2013-02-25 06:05:00,
2013-02-25 01:10:00,27.0,25.2,30.18,SE,136,0.0,0.0,93,0.00,,,0.00,0.00,VWS V14.01,2013-02-25 06:10:00,
2013-02-25 01:15:00,27.1,25.6,30.18,SSE,160,0.0,0.0,94,0.00,,,0.00,0.00,VWS V14.01,2013-02-25 06:15:00,
2013-02-25 01:20:00,27.5,26.0,30.18,SSE,162,0.0,0.0,94,0.00,,,0.00,0.00,VWS V14.01,2013-02-25 06:20:00,
2013-02-25 01:25:00,27.8,26.3,30.18,SSE,162,0.0,0.0,94,0.00,,,0.00,0.00,VWS V14.01,2013-02-25 06:25:00,
2013-02-25 01:30:00,27.9,26.4,30.18,SSW,195,0.0,0.0,94,0.00,,,0.00,0.00,VWS V14.01,2013-02-25 06:30:00,
2013-02-25 01:35:00,28.0,26.5,30.18,WSW,240,0.0,0.0,94,0.00,,,0.00,0.00,VWS V14.01,2013-02-25 06:35:00,
2013-02-25 01:40:00,28.0,26.2,30.18,WSW,240,0.0,0.0,93,0.00,,,0.00,0.00,VWS V14.01,2013-02-25 06:40:00,
2013-02-25 01:45:00,28.1,26.3,30.19,WSW,240,0.0,0.0,93,0.00,,,0.00,0.00,VWS V14.01,2013-02-25 06:45:00,
2013-02-25 01:50:00,28.1,26.3,30.19,WSW,240,0.0,1.5,93,0.00,,,0.00,0.00,VWS V14.01,2013-02-25 06:50:00,
2013-02-25 01:54:00,28.2,26.4,30.19,WSW,240,0.0,1.5,93,0.00,,,0.00,0.00,VWS V14.01,2013-02-25 06:54:00,
2013-02-25 01:59:00,28.1,26.3,30.19,WSW,240,0.0,1.5,93,0.00,,,0.00,0.00,VWS V14.01,2013-02-25 06:59:00,
2013-02-25 02:00:00,28.1,26.3,30.19,WSW,240,0.0,1.5,93,0.00,,,0.00,0.00,VWS V14.01,2013-02-25 07:00:00,
2013-02-25 02:04:00,28.1,26.3,30.19,WSW,240,0.0,0.0,93,0.00,,,0.00,0.00,VWS V14.01,2013-02-25 07:04:00,
2013-02-25 02:09:00,28.0,26.2,30.19,WSW,240,0.0,0.0,93,0.00,,,0.00,0.00,VWS V14.01,2013-02-25 07:09:00,
2013-02-25 02:14:00,27.8,25.8,30.19,WSW,240,0.0,0.0,92,0.00,,,0.00,0.00,VWS V14.01,2013-02-25 07:14:00,
2013-02-25 02:15:00,27.8,25.8,30.19,WSW,240,0.0,0.0,92,0.00,,,0.00,0.00,VWS V14.01,2013-02-25 07:15:00,
2013-02-25 02:19:00,27.5,25.5,30.18,WSW,240,0.0,0.0,92,0.00,,,0.00,0.00,VWS V14.01,2013-02-25 07:19:00,
2013-02-25 02:24:00,27.3,25.3,30.19,WSW,240,0.0,0.0,92,0.00,,,0.00,0.00,VWS V14.01,2013-02-25 07:24:00,
2013-02-25 02:29:00,27.0,25.2,30.19,WSW,240,0.0,0.0,93,0.00,,,0.00,0.00,VWS V14.01,2013-02-25 07:29:00,
2013-02-25 02:30:00,27.0,25.2,30.19,WSW,240,0.0,0.0,93,0.00,,,0.00,0.00,VWS V14.01,2013-02-25 07:30:00,
2013-02-25 02:34:00,26.8,25.0,30.18,WSW,240,0.0,0.0,93,0.00,,,0.00,0.00,VWS V14.01,2013-02-25 07:34:00,
2013-02-25 02:39:00,26.6,24.9,30.18,WSW,240,0.0,0.0,93,0.00,,,0.00,0.00,VWS V14.01,2013-02-25 07:39:00,
2013-02-25 02:44:00,26.4,24.6,30.18,WSW,240,0.0,0.0,93,0.00,,,0.00,0.00,VWS V14.01,2013-02-25 07:44:00,
2013-02-25 02:45:00,26.4,24.6,30.18,WSW,240,0.0,0.0,93,0.00,,,0.00,0.00,VWS V14.01,2013-02-25 07:45:00,
2013-02-25 02:49:00,26.2,24.5,30.18,WSW,240,0.0,0.0,93,0.00,,,0.00,0.00,VWS V14.01,2013-02-25 07:49:00,
2013-02-25 02:54:00,26.0,24.3,30.18,WSW,240,0.0,0.0,93,0.00,,,0.00,0.00,VWS V14.01,2013-02-25 07:54:00,
2013-02-25 02:59:00,25.9,24.4,30.18,WSW,240,0.0,0.0,94,0.00,,,0.00,0.00,VWS V14.01,2013-02-25 07:59:00,
2013-02-25 03:00:00,25.9,24.4,30.18,WSW,240,0.0,0.0,94,0.00,,,0.00,0.00,VWS V14.01,2013-02-25 08:00:00,
2013-02-25 03:04:00,25.8,24.3,30.18,WSW,240,0.0,0.0,94,0.00,,,0.00,0.00,VWS V14.01,2013-02-25 08:04:00,
2013-02-25 03:09:00,25.6,24.1,30.18,WSW,240,0.0,0.0,94,0.00,,,0.00,0.00,VWS V14.01,2013-02-25 08:09:00,
2013-02-25 03:14:00,25.4,23.9,30.18,WSW,240,0.0,0.0,94,0.00,,,0.00,0.00,VWS V14.01,2013-02-25 08:14:00,
2013-02-25 03:15:00,25.3,23.8,30.18,WSW,240,0.0,0.0,94,0.00,,,0.00,0.00,VWS V14.01,2013-02-25 08:15:00,
2013-02-25 03:19:00,25.2,23.7,30.18,WSW,240,0.0,0.0,94,0.00,,,0.00,0.00,VWS V14.01,2013-02-25 08:19:00,
2013-02-25 03:24:00,25.1,23.6,30.18,WSW,240,0.0,0.0,94,0.00,,,0.00,0.00,VWS V14.01,2013-02-25 08:24:00,
2013-02-25 03:29:00,25.0,23.5,30.18,WSW,240,0.0,0.0,94,0.00,,,0.00,0.00,VWS V14.01,2013-02-25 08:29:00,
2013-02-25 03:30:00,24.9,23.4,30.18,WSW,240,0.0,0.0,94,0.00,,,0.00,0.00,VWS V14.01,2013-02-25 08:30:00,
2013-02-25 03:34:00,24.8,23.3,30.18,WSW,240,0.0,0.0,94,0.00,,,0.00,0.00,VWS V14.01,2013-02-25 08:34:00,
2013-02-25 03:40:00,24.6,23.1,30.18,WSW,240,0.0,0.0,94,0.00,,,0.00,0.00,VWS V14.01,2013-02-25 08:40:00,
2013-02-25 03:45:00,24.6,23.1,30.18,WSW,240,0.0,0.0,94,0.00,,,0.00,0.00,VWS V14.01,2013-02-25 08:45:00,
2013-02-25 03:50:00,24.8,23.6,30.17,WSW,240,0.0,0.0,95,0.00,,,0.00,0.00,VWS V14.01,2013-02-25 08:50:00,
2013-02-25 03:55:00,24.8,23.6,30.18,WSW,240,0.0,0.0,95,0.00,,,0.00,0.00,VWS V14.01,2013-02-25 08:55:00,
2013-02-25 04:00:00,24.7,23.5,30.18,WSW,240,0.0,0.0,95,0.00,,,0.00,0.00,VWS V14.01,2013-02-25 09:00:00,
2013-02-25 04:05:00,24.6,23.4,30.18,WSW,240,0.0,0.0,95,0.00,,,0.00,0.00,VWS V14.01,2013-02-25 09:05:00,
2013-02-25 04:10:00,24.3,22.8,30.18,WSW,240,0.0,0.0,94,0.00,,,0.00,0.00,VWS V14.01,2013-02-25 09:10:00,
2013-02-25 04:15:00,24.2,22.7,30.18,WSW,240,0.0,0.0,94,0.00,,,0.00,0.00,VWS V14.01,2013-02-25 09:15:00,
2013-02-25 04:20:00,23.9,22.4,30.18,WSW,240,0.0,0.0,94,0.00,,,0.00,0.00,VWS V14.01,2013-02-25 09:20:00,
2013-02-25 04:25:00,23.7,22.2,30.18,WSW,240,0.0,0.0,94,0.00,,,0.00,0.00,VWS V14.01,2013-02-25 09:25:00,
2013-02-25 04:30:00,23.6,22.1,30.18,WSW,240,0.0,0.0,94,0.00,,,0.00,0.00,VWS V14.01,2013-02-25 09:30:00,
2013-02-25 04:35:00,23.5,22.0,30.19,WSW,240,0.0,0.0,94,0.00,,,0.00,0.00,VWS V14.01,2013-02-25 09:35:00,
2013-02-25 04:40:00,23.4,21.9,30.19,WSW,240,0.0,0.0,94,0.00,,,0.00,0.00,VWS V14.01,2013-02-25 09:40:00,
2013-02-25 04:45:00,23.3,21.8,30.19,WSW,240,0.0,0.0,94,0.00,,,0.00,0.00,VWS V14.01,2013-02-25 09:45:00,
2013-02-25 04:50:00,23.4,22.2,30.19,WSW,240,0.0,0.0,95,0.00,,,0.00,0.00,VWS V14.01,2013-02-25 09:50:00,
2013-02-25 04:55:00,23.7,22.5,30.19,WSW,240,0.0,0.0,95,0.00,,,0.00,0.00,VWS V14.01,2013-02-25 09:55:00,
2013-02-25 05:00:00,23.8,22.6,30.19,WSW,240,0.0,0.0,95,0.00,,,0.00,0.00,VWS V14.01,2013-02-25 10:00:00,
2013-02-25 05:05:00,23.8,22.6,30.19,WSW,240,0.0,0.0,95,0.00,,,0.00,0.00,VWS V14.01,2013-02-25 10:05:00,
2013-02-25 05:10:00,23.8,22.6,30.19,WSW,240,0.0,0.0,95,0.00,,,0.00,0.00,VWS V14.01,2013-02-25 10:10:00,
2013-02-25 05:15:00,23.5,22.0,30.19,WSW,240,0.0,0.0,94,0.00,,,0.00,0.00,VWS V14.01,2013-02-25 10:15:00,
2013-02-25 05:20:00,23.2,21.7,30.19,WSW,240,0.0,0.0,94,0.00,,,0.00,0.00,VWS V14.01,2013-02-25 10:20:00,
2013-02-25 05:25:00,23.1,21.6,30.19,WSW,240,0.0,0.0,94,0.00,,,0.00,0.00,VWS V14.01,2013-02-25 10:25:00,
2013-02-25 05:30:00,23.0,21.5,30.19,WSW,240,0.0,0.0,94,0.00,,,0.00,0.00,VWS V14.01,2013-02-25 10:30:00,
2013-02-25 05:35:00,23.0,21.5,30.19,WSW,240,0.0,0.0,94,0.00,,,0.00,0.00,VWS V14.01,2013-02-25 10:35:00,
2013-02-25 05:40:00,22.9,21.4,30.20,WSW,240,0.0,0.0,94,0.00,,,0.00,0.00,VWS V14.01,2013-02-25 10:40:00,
2013-02-25 05:45:00,23.0,21.5,30.20,SE,136,0.0,0.0,94,0.00,,,0.00,0.00,VWS V14.01,2013-02-25 10:45:00,
2013-02-25 05:50:00,23.0,21.5,30.20,SE,136,0.0,1.5,94,0.00,,,0.00,0.00,VWS V14.01,2013-02-25 10:50:00,
2013-02-25 05:55:00,22.8,21.3,30.20,SE,136,0.0,1.5,94,0.00,,,0.00,0.00,VWS V14.01,2013-02-25 10:55:00,
2013-02-25 06:00:00,22.8,21.3,30.20,SE,136,0.0,1.5,94,0.00,,,0.00,0.00,VWS V14.01,2013-02-25 11:00:00,
2013-02-25 06:05:00,22.9,21.7,30.20,SE,136,0.0,1.5,95,0.00,,,0.00,0.00,VWS V14.01,2013-02-25 11:05:00,
2013-02-25 06:10:00,23.2,22.0,30.20,SE,136,0.0,1.5,95,0.00,,,0.00,0.00,VWS V14.01,2013-02-25 11:10:00,
2013-02-25 06:15:00,23.1,21.6,30.20,SE,136,0.0,1.5,94,0.00,,,0.00,0.00,VWS V14.01,2013-02-25 11:15:00,
2013-02-25 06:20:00,22.7,21.0,30.20,SE,136,0.0,1.5,93,0.00,,,0.00,0.00,VWS V14.01,2013-02-25 11:20:00,
2013-02-25 06:25:00,22.8,21.3,30.21,SE,136,0.0,1.5,94,0.00,,,0.00,0.00,VWS V14.01,2013-02-25 11:25:00,
2013-02-25 06:30:00,22.7,21.2,30.21,SE,136,0.0,1.5,94,0.00,,,0.00,0.00,VWS V14.01,2013-02-25 11:30:00,
2013-02-25 06:35:00,22.8,21.3,30.21,SE,136,0.0,0.0,94,0.00,,,0.00,0.00,VWS V14.01,2013-02-25 11:35:00,
2013-02-25 06:40:00,22.7,21.2,30.21,SE,136,0.0,0.0,94,0.00,,,0.00,0.00,VWS V14.01,2013-02-25 11:40:00,
2013-02-25 06:45:00,22.7,21.2,30.22,SE,136,0.0,0.0,94,0.00,,,0.00,0.00,VWS V14.01,2013-02-25 11:45:00,
2013-02-25 06:50:00,22.6,20.9,30.22,SE,136,0.0,0.0,93,0.00,,,0.00,0.00,VWS V14.01,2013-02-25 11:50:00,
2013-02-25 06:55:00,22.4,20.7,30.22,SE,136,0.0,0.0,93,0.00,,,0.00,0.00,VWS V14.01,2013-02-25 11:55:00,
2013-02-25 07:00:00,22.4,20.9,30.22,SE,136,0.0,0.0,94,0.00,,,0.00,0.00,VWS V14.01,2013-02-25 12:00:00,
2013-02-25 07:05:00,22.4,20.9,30.22,SE,136,0.0,0.0,94,0.00,,,0.00,0.00,VWS V14.01,2013-02-25 12:05:00,
2013-02-25 07:10:00,22.6,21.1,30.23,SE,136,0.0,0.0,94,0.00,,,0.00,0.00,VWS V14.01,2013-02-25 12:10:00,
2013-02-25 07:15:00,22.9,21.7,30.23,SE,136,0.0,0.0,95,0.00,,,0.00,0.00,VWS V14.01,2013-02-25 12:15:00,
2013-02-25 07:20:00,23.1,21.9,30.23,SE,125,1.5,1.5,95,0.00,,,0.00,0.00,VWS V14.01,2013-02-25 12:20:00,
2013-02-25 07:25:00,23.5,22.3,30.23,SE,131,1.5,1.5,95,0.00,,,0.00,0.00,VWS V14.01,2013-02-25 12:25:00,
2013-02-25 07:30:00,23.6,22.1,30.23,SE,125,0.0,1.5,94,0.00,,,0.00,0.00,VWS V14.01,2013-02-25 12:30:00,
2013-02-25 07:35:00,24.0,22.8,30.23,SE,138,1.5,3.0,95,0.00,,,0.00,0.00,VWS V14.01,2013-02-25 12:35:00,
2013-02-25 07:40:00,24.1,22.6,30.23,SE,134,0.0,3.0,94,0.00,,,0.00,0.00,VWS V14.01,2013-02-25 12:40:00,
2013-02-25 07:45:00,24.1,22.4,30.23,SE,134,0.0,3.0,93,0.00,,,0.00,0.00,VWS V14.01,2013-02-25 12:45:00,
2013-02-25 07:50:00,24.2,22.7,30.24,SE,130,0.0,0.0,94,0.00,,,0.00,0.00,VWS V14.01,2013-02-25 12:50:00,
2013-02-25 07:55:00,24.5,23.0,30.24,SE,130,0.0,1.5,94,0.00,,,0.00,0.00,VWS V14.01,2013-02-25 12:55:00,
2013-02-25 08:00:00,25.0,23.8,30.24,SE,141,1.5,1.5,95,0.00,,,0.00,0.00,VWS V14.01,2013-02-25 13:00:00,
2013-02-25 08:05:00,25.4,23.9,30.24,SE,136,0.0,1.5,94,0.00,,,0.00,0.00,VWS V14.01,2013-02-25 13:05:00,
2013-02-25 08:10:00,25.7,24.2,30.24,SE,136,0.0,1.5,94,0.00,,,0.00,0.00,VWS V14.01,2013-02-25 13:10:00,
2013-02-25 08:15:00,26.0,24.5,30.24,SSE,157,0.0,0.0,94,0.00,,,0.00,0.00,VWS V14.01,2013-02-25 13:15:00,
2013-02-25 08:20:00,26.3,24.8,30.24,SE,136,0.0,1.5,94,0.00,,,0.00,0.00,VWS V14.01,2013-02-25 13:20:00,
2013-02-25 08:25:00,26.7,25.2,30.24,SE,136,0.0,1.5,94,0.00,,,0.00,0.00,VWS V14.01,2013-02-25 13:25:00,
2013-02-25 08:30:00,27.2,25.7,30.24,SE,130,0.0,0.0,94,0.00,,,0.00,0.00,VWS V14.01,2013-02-25 13:30:00,
2013-02-25 08:35:00,27.7,26.2,30.25,SE,130,0.0,0.0,94,0.00,,,0.00,0.00,VWS V14.01,2013-02-25 13:35:00,
2013-02-25 08:40:00,28.7,27.2,30.25,SE,129,0.0,1.5,94,0.00,,,0.00,0.00,VWS V14.01,2013-02-25 13:40:00,
2013-02-25 08:45:00,29.7,27.1,30.25,SSE,153,0.0,1.5,90,0.00,,,0.00,0.00,VWS V14.01,2013-02-25 13:45:00,
2013-02-25 08:50:00,30.4,27.5,30.24,SE,133,0.0,1.5,89,0.00,,,0.00,0.00,VWS V14.01,2013-02-25 13:50:00,
2013-02-25 08:55:00,31.0,27.9,30.25,SE,131,0.0,1.5,88,0.00,,,0.00,0.00,VWS V14.01,2013-02-25 13:55:00,
2013-02-25 09:00:00,31.5,28.1,30.25,ESE,111,0.0,0.0,87,0.00,,,0.00,0.00,VWS V14.01,2013-02-25 14:00:00,
2013-02-25 09:05:00,32.1,28.1,30.24,SE,141,1.5,3.0,85,0.00,,,0.00,0.00,VWS V14.01,2013-02-25 14:05:00,
2013-02-25 09:10:00,32.6,28.3,30.25,ESE,120,0.0,3.0,84,0.00,,,0.00,0.00,VWS V14.01,2013-02-25 14:10:00,
2013-02-25 09:15:00,33.3,28.1,30.25,SE,139,1.5,1.5,81,0.00,,,0.00,0.00,VWS V14.01,2013-02-25 14:15:00,
2013-02-25 09:20:00,33.7,27.9,30.24,ESE,114,0.0,6.0,79,0.00,,,0.00,0.00,VWS V14.01,2013-02-25 14:20:00,
2013-02-25 09:25:00,34.0,27.9,30.25,ESE,113,1.5,6.0,78,0.00,,,0.00,0.00,VWS V14.01,2013-02-25 14:25:00,
2013-02-25 09:30:00,34.2,27.8,30.25,ENE,75,1.5,1.5,77,0.00,,,0.00,0.00,VWS V14.01,2013-02-25 14:30:00,
2013-02-25 09:35:00,34.5,28.0,30.25,East,91,0.0,1.5,77,0.00,,,0.00,0.00,VWS V14.01,2013-02-25 14:35:00,
2013-02-25 09:40:00,34.7,26.6,30.25,SE,136,0.0,4.5,72,0.00,,,0.00,0.00,VWS V14.01,2013-02-25 14:40:00,
2013-02-25 09:45:00,35.1,27.3,30.25,ESE,122,0.0,0.0,73,0.00,,,0.00,0.00,VWS V14.01,2013-02-25 14:45:00,
2013-02-25 09:50:00,35.1,26.3,30.25,NE,44,1.5,3.0,70,0.00,,,0.00,0.00,VWS V14.01,2013-02-25 14:50:00,
2013-02-25 09:55:00,34.8,25.3,30.24,East,79,1.5,6.0,68,0.00,,,0.00,0.00,VWS V14.01,2013-02-25 14:55:00,
2013-02-25 10:00:00,35.0,25.9,30.24,SE,128,0.0,0.0,69,0.00,,,0.00,0.00,VWS V14.01,2013-02-25 15:00:00,
2013-02-25 10:05:00,35.5,26.7,30.25,NW,318,0.0,4.5,70,0.00,,,0.00,0.00,VWS V14.01,2013-02-25 15:05:00,
2013-02-25 10:10:00,36.0,25.8,30.25,ENE,63,3.0,4.5,66,0.00,,,0.00,0.00,VWS V14.01,2013-02-25 15:10:00,
2013-02-25 10:15:00,35.5,24.2,30.24,East,84,0.0,0.0,63,0.00,,,0.00,0.00,VWS V14.01,2013-02-25 15:15:00,
2013-02-25 10:20:00,35.5,25.3,30.24,SE,129,0.0,3.0,66,0.00,,,0.00,0.00,VWS V14.01,2013-02-25 15:20:00,
2013-02-25 10:25:00,36.0,24.3,30.24,NE,54,6.0,6.0,62,0.00,,,0.00,0.00,VWS V14.01,2013-02-25 15:25:00,
2013-02-25 10:30:00,35.8,24.5,30.24,NE,49,4.5,4.5,63,0.00,,,0.00,0.00,VWS V14.01,2013-02-25 15:30:00,
2013-02-25 10:35:00,35.8,25.2,30.24,ENE,72,0.0,4.5,65,0.00,,,0.00,0.00,VWS V14.01,2013-02-25 15:35:00,
2013-02-25 10:40:00,35.7,23.6,30.24,SE,135,0.0,4.5,61,0.00,,,0.00,0.00,VWS V14.01,2013-02-25 15:40:00,
2013-02-25 10:45:00,35.7,23.2,30.24,East,87,1.5,7.5,60,0.00,,,0.00,0.00,VWS V14.01,2013-02-25 15:45:00,
2013-02-25 10:50:00,36.1,24.0,30.24,SSE,147,0.0,6.0,61,0.00,,,0.00,0.00,VWS V14.01,2013-02-25 15:50:00,
2013-02-25 10:55:00,36.2,24.1,30.24,East,94,1.5,6.0,61,0.00,,,0.00,0.00,VWS V14.01,2013-02-25 15:55:00,
2013-02-25 11:00:00,35.7,24.0,30.24,SE,124,0.0,6.0,62,0.00,,,0.00,0.00,VWS V14.01,2013-02-25 16:00:00,
2013-02-25 11:05:00,35.9,23.8,30.23,NNE,14,1.5,4.5,61,0.00,,,0.00,0.00,VWS V14.01,2013-02-25 16:05:00,
2013-02-25 11:10:00,36.1,24.4,30.23,South,170,0.0,4.5,62,0.00,,,0.00,0.00,VWS V14.01,2013-02-25 16:10:00,
2013-02-25 11:15:00,36.8,25.0,30.23,SE,140,0.0,4.5,62,0.00,,,0.00,0.00,VWS V14.01,2013-02-25 16:15:00,
2013-02-25 11:20:00,37.3,24.3,30.23,SE,141,0.0,3.0,59,0.00,,,0.00,0.00,VWS V14.01,2013-02-25 16:20:00,
2013-02-25 11:25:00,37.5,23.2,30.23,WSW,240,0.0,6.0,56,0.00,,,0.00,0.00,VWS V14.01,2013-02-25 16:25:00,
2013-02-25 11:30:00,37.4,23.1,30.24,SW,228,0.0,6.0,56,0.00,,,0.00,0.00,VWS V14.01,2013-02-25 16:30:00,
2013-02-25 11:35:00,37.4,23.6,30.24,SSW,192,3.0,4.5,57,0.00,,,0.00,0.00,VWS V14.01,2013-02-25 16:35:00,
2013-02-25 11:40:00,37.5,23.2,30.24,SE,143,0.0,4.5,56,0.00,,,0.00,0.00,VWS V14.01,2013-02-25 16:40:00,
2013-02-25 11:45:00,37.7,23.4,30.25,ESE,122,4.5,7.5,56,0.00,,,0.00,0.00,VWS V14.01,2013-02-25 16:45:00,
2013-02-25 11:50:00,37.8,22.7,30.24,WSW,242,0.0,4.5,54,0.00,,,0.00,0.00,VWS V14.01,2013-02-25 16:50:00,
2013-02-25 11:55:00,38.0,22.0,30.24,NNE,23,3.0,4.5,52,0.00,,,0.00,0.00,VWS V14.01,2013-02-25 16:55:00,
2013-02-25 12:00:00,37.8,21.8,30.24,North,4,0.0,4.5,52,0.00,,,0.00,0.00,VWS V14.01,2013-02-25 17:00:00,
2013-02-25 12:15:00,38.5,22.9,30.24,NNE,22,1.5,4.5,53,0.00,,,0.00,0.00,VWS V14.01,2013-02-25 17:15:00,
2013-02-25 12:30:00,37.0,24.8,30.24,NE,45,3.0,10.5,61,0.00,,,0.00,0.00,VWS V14.01,2013-02-25 17:30:00,
2013-02-25 12:45:00,37.8,25.6,30.24,NNE,22,1.5,10.5,61,0.00,,,0.00,0.00,VWS V14.01,2013-02-25 17:45:00,
2013-02-25 13:00:00,37.3,25.1,30.23,NNE,22,3.0,12.0,61,0.00,,,0.00,0.00,VWS V14.01,2013-02-25 18:00:00,
2013-02-25 13:15:00,37.2,24.6,30.23,NNE,22,3.0,12.0,60,0.00,,,0.00,0.00,VWS V14.01,2013-02-25 18:15:00,
2013-02-25 13:30:00,37.5,25.3,30.21,NE,45,4.5,9.0,61,0.00,,,0.00,0.00,VWS V14.01,2013-02-25 18:30:00,
2013-02-25 13:45:00,37.4,24.8,30.20,NE,45,4.5,9.0,60,0.00,,,0.00,0.00,VWS V14.01,2013-02-25 18:45:00,
2013-02-25 14:00:00,37.7,25.1,30.19,NNE,22,3.0,9.0,60,0.00,,,0.00,0.00,VWS V14.01,2013-02-25 19:00:00,
2013-02-25 14:15:00,37.7,24.3,30.18,NNE,22,4.5,10.5,58,0.00,,,0.00,0.00,VWS V14.01,2013-02-25 19:15:00,
2013-02-25 14:30:00,37.3,24.7,30.17,NNE,22,4.5,10.5,60,0.00,,,0.00,0.00,VWS V14.01,2013-02-25 19:30:00,
2013-02-25 14:45:00,37.5,25.3,30.17,NNE,22,4.5,9.0,61,0.00,,,0.00,0.00,VWS V14.01,2013-02-25 19:45:00,
2013-02-25 15:00:00,37.4,25.2,30.17,NNE,22,4.5,10.5,61,0.00,,,0.00,0.00,VWS V14.01,2013-02-25 20:00:00,
2013-02-25 15:15:00,37.5,25.3,30.17,NNE,22,4.5,10.5,61,0.00,,,0.00,0.00,VWS V14.01,2013-02-25 20:15:00,
2013-02-25 15:30:00,37.5,25.3,30.17,NNE,22,4.5,10.5,61,0.00,,,0.00,0.00,VWS V14.01,2013-02-25 20:30:00,
2013-02-25 15:45:00,37.5,25.3,30.17,NNE,22,4.5,10.5,61,0.00,,,0.00,0.00,VWS V14.01,2013-02-25 20:45:00,
2013-02-25 16:00:00,37.7,25.5,30.16,NNE,22,4.5,9.0,61,0.00,,,0.00,0.00,VWS V14.01,2013-02-25 21:00:00,
2013-02-25 16:15:00,37.8,25.2,30.16,NNE,22,4.5,12.0,60,0.00,,,0.00,0.00,VWS V14.01,2013-02-25 21:15:00,
2013-02-25 16:30:00,37.4,25.2,30.16,NNE,22,4.5,13.5,61,0.00,,,0.00,0.00,VWS V14.01,2013-02-25 21:30:00,
2013-02-25 16:45:00,36.8,25.0,30.17,NNE,22,4.5,13.5,62,0.00,,,0.00,0.00,VWS V14.01,2013-02-25 21:45:00,
2013-02-25 17:00:00,36.3,25.3,30.17,NNE,22,4.5,9.0,64,0.00,,,0.00,0.00,VWS V14.01,2013-02-25 22:00:00,
2013-02-25 17:15:00,35.3,25.5,30.17,NNE,22,4.5,12.0,67,0.00,,,0.00,0.00,VWS V14.01,2013-02-25 22:15:00,
2013-02-25 17:30:00,35.0,25.2,30.17,NNE,22,3.0,7.5,67,0.00,,,0.00,0.00,VWS V14.01,2013-02-25 22:30:00,
2013-02-25 17:54:00,35.0,25.2,30.17,NNE,22,3.0,7.5,67,0.00,,,0.00,0.00,VWS V14.01,2013-02-25 22:54:00,
2013-02-25 17:59:00,34.3,24.9,30.15,ENE,61,1.5,4.5,68,0.00,,,0.00,0.00,VWS V14.01,2013-02-25 22:59:00,
2013-02-25 18:00:00,34.3,24.9,30.15,ENE,63,1.5,4.5,68,0.00,,,0.00,0.00,VWS V14.01,2013-02-25 23:00:00,
2013-02-25 18:04:00,34.2,24.4,30.15,NNE,23,6.0,6.0,67,0.00,,,0.00,0.00,VWS V14.01,2013-02-25 23:04:00,
2013-02-25 18:09:00,34.1,24.3,30.15,NE,35,4.5,6.0,67,0.00,,,0.00,0.00,VWS V14.01,2013-02-25 23:09:00,
2013-02-25 18:14:00,34.0,24.2,30.15,NE,39,4.5,7.5,67,0.00,,,0.00,0.00,VWS V14.01,2013-02-25 23:14:00,
2013-02-25 18:15:00,34.0,24.2,30.15,NE,46,3.0,7.5,67,0.00,,,0.00,0.00,VWS V14.01,2013-02-25 23:15:00,
2013-02-25 18:19:00,33.8,24.0,30.16,NNE,30,3.0,3.0,67,0.00,,,0.00,0.00,VWS V14.01,2013-02-25 23:19:00,
2013-02-25 18:24:00,33.6,24.2,30.16,ENE,75,1.5,3.0,68,0.00,,,0.00,0.00,VWS V14.01,2013-02-25 23:24:00,
2013-02-25 18:29:00,33.5,23.7,30.16,NE,40,3.0,6.0,67,0.00,,,0.00,0.00,VWS V14.01,2013-02-25 23:29:00,
2013-02-25 18:30:00,33.5,24.1,30.16,NNE,27,1.5,6.0,68,0.00,,,0.00,0.00,VWS V14.01,2013-02-25 23:30:00,
2013-02-25 18:34:00,33.3,23.9,30.16,ENE,69,3.0,7.5,68,0.00,,,0.00,0.00,VWS V14.01,2013-02-25 23:34:00,
2013-02-25 18:39:00,33.1,24.0,30.16,ENE,58,1.5,7.5,69,0.00,,,0.00,0.00,VWS V14.01,2013-02-25 23:39:00,
2013-02-25 18:44:00,32.9,23.9,30.15,ENE,76,1.5,7.5,69,0.00,,,0.00,0.00,VWS V14.01,2013-02-25 23:44:00,
2013-02-25 18:45:00,32.9,23.9,30.16,ENE,68,3.0,7.5,69,0.00,,,0.00,0.00,VWS V14.01,2013-02-25 23:45:00,
2013-02-25 18:49:00,32.8,23.8,30.16,ENE,63,0.0,7.5,69,0.00,,,0.00,0.00,VWS V14.01,2013-02-25 23:49:00,
2013-02-25 18:54:00,32.7,24.0,30.16,ENE,64,4.5,7.5,70,0.00,,,0.00,0.00,VWS V14.01,2013-02-25 23:54:00,
2013-02-25 18:59:00,32.6,24.2,30.16,NE,44,0.0,7.5,71,0.00,,,0.00,0.00,VWS V14.01,2013-02-25 23:59:00,
2013-02-25 19:00:00,32.5,23.8,30.16,ENE,65,1.5,7.5,70,0.00,,,0.00,0.00,VWS V14.01,2013-02-26 00:00:00,
2013-02-25 19:04:00,32.4,24.1,30.16,ENE,57,0.0,3.0,71,0.00,,,0.00,0.00,VWS V14.01,2013-02-26 00:04:00,
2013-02-25 19:09:00,32.3,24.0,30.16,NE,47,3.0,3.0,71,0.00,,,0.00,0.00,VWS V14.01,2013-02-26 00:09:00,
2013-02-25 19:14:00,32.2,23.9,30.16,East,80,0.0,6.0,71,0.00,,,0.00,0.00,VWS V14.01,2013-02-26 00:14:00,
2013-02-25 19:15:00,32.2,23.9,30.16,ENE,65,3.0,6.0,71,0.00,,,0.00,0.00,VWS V14.01,2013-02-26 00:15:00,
2013-02-25 19:19:00,32.1,23.8,30.16,NE,43,0.0,3.0,71,0.00,,,0.00,0.00,VWS V14.01,2013-02-26 00:19:00,
2013-02-25 19:24:00,32.0,23.7,30.17,ENE,77,1.5,4.5,71,0.00,,,0.00,0.00,VWS V14.01,2013-02-26 00:24:00,
2013-02-25 19:29:00,31.9,23.6,30.17,ENE,68,1.5,4.5,71,0.00,,,0.00,0.00,VWS V14.01,2013-02-26 00:29:00,
2013-02-25 19:30:00,31.9,23.6,30.17,ENE,69,1.5,4.5,71,0.00,,,0.00,0.00,VWS V14.01,2013-02-26 00:30:00,
2013-02-25 19:34:00,31.8,23.5,30.17,ENE,64,1.5,7.5,71,0.00,,,0.00,0.00,VWS V14.01,2013-02-26 00:34:00,
2013-02-25 19:39:00,31.7,23.7,30.17,NE,53,0.0,7.5,72,0.00,,,0.00,0.00,VWS V14.01,2013-02-26 00:39:00,
2013-02-25 19:44:00,31.6,23.3,30.17,East,80,1.5,7.5,71,0.00,,,0.00,0.00,VWS V14.01,2013-02-26 00:44:00,
2013-02-25 19:45:00,31.6,23.3,30.17,NE,53,0.0,7.5,71,0.00,,,0.00,0.00,VWS V14.01,2013-02-26 00:45:00,
2013-02-25 19:49:00,31.5,23.5,30.17,NE,46,1.5,1.5,72,0.00,,,0.00,0.00,VWS V14.01,2013-02-26 00:49:00,
2013-02-25 19:54:00,31.4,23.4,30.17,East,84,3.0,4.5,72,0.00,,,0.00,0.00,VWS V14.01,2013-02-26 00:54:00,
2013-02-25 19:59:00,31.3,23.0,30.17,ENE,65,1.5,4.5,71,0.00,,,0.00,0.00,VWS V14.01,2013-02-26 00:59:00,
2013-02-25 20:00:00,31.3,23.3,30.17,ENE,66,0.0,4.5,72,0.00,,,0.00,0.00,VWS V14.01,2013-02-26 01:00:00,
2013-02-25 20:04:00,31.2,23.2,30.17,East,96,0.0,1.5,72,0.00,,,0.00,0.00,VWS V14.01,2013-02-26 01:04:00,
2013-02-25 20:09:00,31.1,23.1,30.17,ENE,75,0.0,1.5,72,0.00,,,0.00,0.00,VWS V14.01,2013-02-26 01:09:00,
2013-02-25 20:14:00,31.0,23.0,30.17,East,84,0.0,3.0,72,0.00,,,0.00,0.00,VWS V14.01,2013-02-26 01:14:00,
2013-02-25 20:15:00,31.0,23.0,30.18,East,84,0.0,3.0,72,0.00,,,0.00,0.00,VWS V14.01,2013-02-26 01:15:00,
2013-02-25 20:19:00,30.9,23.0,30.18,East,85,0.0,1.5,72,0.00,,,0.00,0.00,VWS V14.01,2013-02-26 01:19:00,
2013-02-25 20:24:00,30.8,22.9,30.18,ENE,64,0.0,3.0,72,0.00,,,0.00,0.00,VWS V14.01,2013-02-26 01:24:00,
2013-02-25 20:29:00,30.8,23.2,30.17,ENE,67,0.0,3.0,73,0.00,,,0.00,0.00,VWS V14.01,2013-02-26 01:29:00,
2013-02-25 20:30:00,30.7,23.1,30.17,ENE,68,0.0,3.0,73,0.00,,,0.00,0.00,VWS V14.01,2013-02-26 01:30:00,
2013-02-25 20:34:00,30.7,23.1,30.17,ENE,70,1.5,1.5,73,0.00,,,0.00,0.00,VWS V14.01,2013-02-26 01:34:00,
2013-02-25 20:39:00,30.7,23.1,30.17,East,90,0.0,3.0,73,0.00,,,0.00,0.00,VWS V14.01,2013-02-26 01:39:00,
2013-02-25 20:44:00,30.6,23.0,30.17,East,90,1.5,3.0,73,0.00,,,0.00,0.00,VWS V14.01,2013-02-26 01:44:00,
2013-02-25 20:45:00,30.6,23.0,30.17,East,90,0.0,3.0,73,0.00,,,0.00,0.00,VWS V14.01,2013-02-26 01:45:00,
2013-02-25 20:49:00,30.6,23.0,30.17,East,79,0.0,1.5,73,0.00,,,0.00,0.00,VWS V14.01,2013-02-26 01:49:00,
2013-02-25 20:54:00,30.4,22.8,30.16,ENE,68,0.0,1.5,73,0.00,,,0.00,0.00,VWS V14.01,2013-02-26 01:54:00,
2013-02-25 20:59:00,30.4,22.8,30.16,NE,49,0.0,1.5,73,0.00,,,0.00,0.00,VWS V14.01,2013-02-26 01:59:00,
2013-02-25 21:00:00,30.4,22.8,30.16,NE,43,0.0,3.0,73,0.00,,,0.00,0.00,VWS V14.01,2013-02-26 02:00:00,
2013-02-25 21:04:00,30.3,22.7,30.16,East,86,1.5,1.5,73,0.00,,,0.00,0.00,VWS V14.01,2013-02-26 02:04:00,
2013-02-25 21:09:00,30.3,22.7,30.15,NE,35,3.0,4.5,73,0.00,,,0.00,0.00,VWS V14.01,2013-02-26 02:09:00,
2013-02-25 21:14:00,30.3,22.7,30.15,ENE,77,0.0,4.5,73,0.00,,,0.00,0.00,VWS V14.01,2013-02-26 02:14:00,
2013-02-25 21:15:00,30.3,22.7,30.16,East,81,1.5,4.5,73,0.00,,,0.00,0.00,VWS V14.01,2013-02-26 02:15:00,
2013-02-25 21:19:00,30.4,22.8,30.15,NE,56,3.0,3.0,73,0.00,,,0.00,0.00,VWS V14.01,2013-02-26 02:19:00,
2013-02-25 21:24:00,30.3,22.7,30.14,East,80,1.5,4.5,73,0.00,,,0.00,0.00,VWS V14.01,2013-02-26 02:24:00,
2013-02-25 21:29:00,30.3,22.7,30.14,ENE,72,3.0,4.5,73,0.00,,,0.00,0.00,VWS V14.01,2013-02-26 02:29:00,
2013-02-25 21:30:00,30.3,22.7,30.14,ENE,65,1.5,4.5,73,0.00,,,0.00,0.00,VWS V14.01,2013-02-26 02:30:00,
2013-02-25 21:34:00,30.3,22.7,30.14,ENE,62,3.0,3.0,73,0.00,,,0.00,0.00,VWS V14.01,2013-02-26 02:34:00,
2013-02-25 21:39:00,30.2,22.6,30.13,ENE,78,3.0,4.5,73,0.00,,,0.00,0.00,VWS V14.01,2013-02-26 02:39:00,
2013-02-25 21:44:00,30.2,22.6,30.13,NE,49,3.0,4.5,73,0.00,,,0.00,0.00,VWS V14.01,2013-02-26 02:44:00,
2013-02-25 21:45:00,30.2,22.6,30.12,NE,49,1.5,4.5,73,0.00,,,0.00,0.00,VWS V14.01,2013-02-26 02:45:00,
2013-02-25 21:49:00,30.2,22.6,30.12,ENE,75,3.0,6.0,73,0.00,,,0.00,0.00,VWS V14.01,2013-02-26 02:49:00,
2013-02-25 21:54:00,30.2,22.6,30.11,ENE,61,0.0,6.0,73,0.00,,,0.00,0.00,VWS V14.01,2013-02-26 02:54:00,
2013-02-25 21:58:00,30.0,22.4,30.11,ENE,73,1.5,6.0,73,0.00,,,0.00,0.00,VWS V14.01,2013-02-26 02:58:00,
2013-02-25 22:00:00,30.0,22.4,30.11,ENE,58,1.5,6.0,73,0.00,,,0.00,0.00,VWS V14.01,2013-02-26 03:00:00,
2013-02-25 22:03:00,30.1,22.5,30.11,ENE,59,1.5,6.0,73,0.00,,,0.00,0.00,VWS V14.01,2013-02-26 03:03:00,
2013-02-25 22:08:00,30.1,22.5,30.10,East,79,0.0,6.0,73,0.00,,,0.00,0.00,VWS V14.01,2013-02-26 03:08:00,
2013-02-25 22:13:00,30.1,22.5,30.10,ENE,72,1.5,6.0,73,0.00,,,0.00,0.00,VWS V14.01,2013-02-26 03:13:00,
2013-02-25 22:15:00,30.1,22.5,30.10,ENE,67,1.5,6.0,73,0.00,,,0.00,0.00,VWS V14.01,2013-02-26 03:15:00,
2013-02-25 22:18:00,30.0,22.1,30.10,ENE,63,3.0,4.5,72,0.00,,,0.00,0.00,VWS V14.01,2013-02-26 03:18:00,
2013-02-25 22:23:00,30.0,22.4,30.09,ENE,68,0.0,4.5,73,0.00,,,0.00,0.00,VWS V14.01,2013-02-26 03:23:00,
2013-02-25 22:28:00,30.0,22.1,30.10,ENE,69,3.0,4.5,72,0.00,,,0.00,0.00,VWS V14.01,2013-02-26 03:28:00,
2013-02-25 22:30:00,30.0,22.1,30.10,ENE,61,1.5,4.5,72,0.00,,,0.00,0.00,VWS V14.01,2013-02-26 03:30:00,
2013-02-25 22:33:00,30.0,22.1,30.10,ENE,66,1.5,4.5,72,0.00,,,0.00,0.00,VWS V14.01,2013-02-26 03:33:00,
2013-02-25 22:38:00,30.0,22.1,30.10,East,79,3.0,4.5,72,0.00,,,0.00,0.00,VWS V14.01,2013-02-26 03:38:00,
2013-02-25 22:43:00,30.0,22.1,30.10,ENE,77,1.5,4.5,72,0.00,,,0.00,0.00,VWS V14.01,2013-02-26 03:43:00,
2013-02-25 22:45:00,30.0,22.1,30.10,ENE,70,1.5,4.5,72,0.00,,,0.00,0.00,VWS V14.01,2013-02-26 03:45:00,
2013-02-25 22:48:00,30.0,22.1,30.11,East,82,0.0,3.0,72,0.00,,,0.00,0.00,VWS V14.01,2013-02-26 03:48:00,
2013-02-25 22:53:00,30.0,22.1,30.11,ENE,77,1.5,3.0,72,0.00,,,0.00,0.00,VWS V14.01,2013-02-26 03:53:00,
2013-02-25 22:58:00,29.8,21.9,30.11,East,82,1.5,3.0,72,0.00,,,0.00,0.00,VWS V14.01,2013-02-26 03:58:00,
2013-02-25 23:00:00,29.7,22.1,30.11,SSE,155,0.0,3.0,73,0.00,,,0.00,0.00,VWS V14.01,2013-02-26 04:00:00,
2013-02-25 23:03:00,29.7,22.1,30.12,ENE,74,0.0,1.5,73,0.00,,,0.00,0.00,VWS V14.01,2013-02-26 04:03:00,
2013-02-25 23:08:00,29.7,22.1,30.11,ENE,74,0.0,1.5,73,0.00,,,0.00,0.00,VWS V14.01,2013-02-26 04:08:00,
2013-02-25 23:13:00,29.5,21.9,30.11,ENE,74,0.0,1.5,73,0.00,,,0.00,0.00,VWS V14.01,2013-02-26 04:13:00,
2013-02-25 23:15:00,29.5,21.9,30.11,ENE,74,0.0,1.5,73,0.00,,,0.00,0.00,VWS V14.01,2013-02-26 04:15:00,
2013-02-25 23:18:00,29.4,21.8,30.11,ENE,74,0.0,1.5,73,0.00,,,0.00,0.00,VWS V14.01,2013-02-26 04:18:00,
2013-02-25 23:23:00,29.2,22.0,30.11,ENE,74,0.0,1.5,74,0.00,,,0.00,0.00,VWS V14.01,2013-02-26 04:23:00,
2013-02-25 23:28:00,29.1,21.9,30.12,ENE,74,0.0,1.5,74,0.00,,,0.00,0.00,VWS V14.01,2013-02-26 04:28:00,
2013-02-25 23:30:00,29.1,21.9,30.12,East,82,0.0,1.5,74,0.00,,,0.00,0.00,VWS V14.01,2013-02-26 04:30:00,
2013-02-25 23:33:00,29.1,21.9,30.12,East,82,0.0,0.0,74,0.00,,,0.00,0.00,VWS V14.01,2013-02-26 04:33:00,
2013-02-25 23:38:00,29.1,21.9,30.12,East,82,0.0,0.0,74,0.00,,,0.00,0.00,VWS V14.01,2013-02-26 04:38:00,
2013-02-25 23:43:00,29.0,21.8,30.13,East,82,0.0,1.5,74,0.00,,,0.00,0.00,VWS V14.01,2013-02-26 04:43:00,
2013-02-25 23:45:00,29.0,21.8,30.12,East,82,0.0,1.5,74,0.00,,,0.00,0.00,VWS V14.01,2013-02-26 04:45:00,
2013-02-25 23:48:00,29.1,21.9,30.12,East,82,1.5,1.5,74,0.00,,,0.00,0.00,VWS V14.01,2013-02-26 04:48:00,
2013-02-25 23:53:00,29.1,21.9,30.13,East,82,0.0,1.5,74,0.00,,,0.00,0.00,VWS V14.01,2013-02-26 04:53:00,
2013-02-25 23:58:00,29.1,21.5,30.12,SE,132,1.5,1.5,73,0.00,,,0.00,0.00,VWS V14.01,2013-02-26 04:58:00,